Weather History for El Dorado, AR

Change the Weather History Date:

Monday, June 9, 2014

  Actual Average Record
Temperature  
Mean Temperature 74 °F 77 °F  
Max Temperature 80 °F 88 °F 101 °F (1963)
Min Temperature 68 °F 66 °F 54 °F (1930)
Degree Days  
Heating Degree Days 0 0  
Month to date heating degree days 0 0  
Since 1 June heating degree days 0 0  
Since 1 July heating degree days 3248 2673  
Cooling Degree Days 9 12  
Month to date cooling degree days 121 101  
Year to date cooling degree days 373 412  
Since 1 June cooling degree days 121 101  
Growing Degree Days 24 (Base 50)    
Moisture  
Dew Point 69 °F    
Average Humidity 88    
Maximum Humidity 100    
Minimum Humidity 76    
Precipitation  
Precipitation 0.90 in 0.15 in 1.84 in (1938)
Month to date precipitation 1.72 1.33  
Year to date precipitation 23.57 24.31  
Snow  
Snow 0.00 in - - ()
Month to date snowfall 0.0  
Since 1 June snowfall 0.0  
Since 1 July snowfall 1.1  
Snow Depth 0.00 in    
Sea Level Pressure  
Sea Level Pressure 29.81 in    
Wind  
Wind Speed 6 mph (SSW)    
Max Wind Speed 17 mph    
Max Gust Speed 26 mph    
Visibility 8 miles    
Events Fog , Rain , Thunderstorm    
T = Trace of Precipitation, MM = Missing Value Source: NWS Daily Summary

Daily Weather History Graph

Daily Weather History Graph

Search for Another Location

Airport:

Trip Planner

Search our weather history database for the weather conditions in past years. The results will help you decide how hot, cold, wet, or windy it might be!

Date:

Astronomy

Jun. 09, 2014 Rise Set
Actual Time 6:01 AM CDT 8:19 PM CDT
Civil Twilight 5:32 AM CDT 8:48 PM CDT
Nautical Twilight 4:57 AM CDT 9:23 PM CDT
Astronomical Twilight 4:19 AM CDT 10:01 PM CDT
Moon 4:50 PM CDT (6/9) 3:18 AM CDT (6/9)
Length of Visible Light 15h 15m
Length of Day
14h 18m
Waxing Gibbous, 85% of the Moon is Illuminated
Jun 9
Waxing Gibbous
Jun 12
Full
Jun 19
Last Quarter
Jun 27
New
Jul 5
First Quarter

Hourly Weather History & Observations

Time (CDT) Temp. Dew Point Humidity Pressure Visibility Wind Dir Wind Speed Gust Speed Precip Events Conditions
12:53 AM 70.0 °F 69.1 °F 97% 29.85 in 10.0 mi SSE 4.6 mph - N/A   Clear
1:53 AM 69.1 °F 69.1 °F 100% 29.82 in 10.0 mi Calm Calm - N/A   Clear
2:07 AM 70.0 °F 69.1 °F 97% 29.82 in 10.0 mi SSE 4.6 mph - N/A   Scattered Clouds
2:16 AM 70.0 °F 70.0 °F 100% 29.82 in 4.0 mi Calm Calm - N/A   Mostly Cloudy
2:23 AM 70.0 °F 70.0 °F 100% 29.82 in 2.5 mi Calm Calm - N/A   Mostly Cloudy
2:34 AM 70.0 °F 70.0 °F 100% 29.82 in 4.0 mi Calm Calm - N/A   Overcast
2:41 AM 70.0 °F 69.1 °F 97% 29.82 in 1.5 mi East 3.5 mph - N/A   Overcast
2:50 AM 69.8 °F 69.8 °F 100% 29.82 in 0.5 mi ENE 3.5 mph - N/A Fog Fog
2:53 AM 69.1 °F 69.1 °F 100% 29.82 in 0.5 mi ENE 3.5 mph - N/A Fog Fog
3:10 AM 69.1 °F 69.1 °F 100% 29.83 in 2.0 mi Calm Calm - N/A   Overcast
3:18 AM 69.1 °F 69.1 °F 100% 29.82 in 7.0 mi Calm Calm - N/A   Overcast
3:27 AM 69.1 °F 69.1 °F 100% 29.81 in 9.0 mi Calm Calm - N/A   Overcast
3:53 AM 70.0 °F 70.0 °F 100% 29.81 in 10.0 mi Calm Calm - N/A   Mostly Cloudy
4:24 AM 70.0 °F 70.0 °F 100% 29.83 in 8.0 mi NW 6.9 mph - N/A   Mostly Cloudy
4:32 AM 70.0 °F 70.0 °F 100% 29.83 in 8.0 mi Calm Calm - N/A   Mostly Cloudy
4:53 AM 70.0 °F 69.1 °F 97% 29.83 in 8.0 mi NW 4.6 mph - N/A   Overcast
5:35 AM 70.0 °F 69.1 °F 97% 29.84 in 8.0 mi WNW 13.8 mph - N/A Thunderstorm Overcast
5:48 AM 69.8 °F 69.8 °F 100% 29.84 in 8.0 mi NW 8.1 mph - 0.00 in Rain Light Rain
5:49 AM 69.1 °F 69.1 °F 100% 29.83 in 8.0 mi NW 8.1 mph - 0.00 in Rain Light Rain
6:12 AM 69.1 °F 69.1 °F 100% 29.86 in 9.0 mi SW 4.6 mph - 0.01 in Rain Light Rain
6:53 AM 69.1 °F 68.0 °F 96% 29.85 in 9.0 mi Calm Calm - 0.02 in Rain Light Rain
7:53 AM 71.1 °F 68.0 °F 90% 29.84 in 10.0 mi ESE 3.5 mph - 0.00 in   Clear
8:53 AM 75.0 °F 68.0 °F 79% 29.84 in 10.0 mi East 4.6 mph - N/A   Scattered Clouds
9:53 AM 77.0 °F 69.8 °F 78% 29.84 in 10.0 mi SE 11.5 mph - N/A   Scattered Clouds
10:53 AM 79.0 °F 73.0 °F 82% 29.82 in 10.0 mi SSE 8.1 mph - N/A   Mostly Cloudy
11:19 AM 78.8 °F 73.4 °F 83% 29.83 in 10.0 mi South 9.2 mph - N/A   Mostly Cloudy
11:50 AM 78.8 °F 71.6 °F 78% 29.83 in 10.0 mi South 9.2 mph - N/A   Scattered Clouds
11:53 AM 78.1 °F 72.0 °F 81% 29.82 in 10.0 mi South 10.4 mph - N/A Thunderstorm Scattered Clouds
12:08 PM 78.1 °F 73.0 °F 84% 29.83 in 10.0 mi Calm Calm - 0.00 in Rain , Thunderstorm Light Thunderstorms and Rain
12:43 PM 75.9 °F 73.9 °F 94% 29.82 in 10.0 mi Calm Calm - 0.01 in Thunderstorm Mostly Cloudy
12:53 PM 75.9 °F 73.9 °F 94% 29.79 in 10.0 mi Calm Calm - 0.01 in Thunderstorm Mostly Cloudy
1:05 PM 73.0 °F 70.0 °F 90% 29.82 in 2.5 mi West 10.4 mph 18.4 mph 0.04 in Rain , Thunderstorm Heavy Thunderstorms and Rain
1:07 PM 72.0 °F 69.1 °F 91% 29.84 in 1.8 mi WNW 15.0 mph 21.9 mph 0.06 in Rain , Thunderstorm Heavy Thunderstorms and Rain
1:14 PM 71.1 °F 68.0 °F 90% 29.82 in 0.5 mi West 17.3 mph 26.5 mph 0.19 in Fog , Rain , Thunderstorm Heavy Thunderstorms and Rain
1:24 PM 69.1 °F 68.0 °F 96% 29.82 in 1.0 mi SW 11.5 mph - 0.46 in Rain , Thunderstorm Heavy Thunderstorms and Rain
1:28 PM 69.1 °F 68.0 °F 96% 29.83 in 2.0 mi SSW 8.1 mph - 0.53 in Rain , Thunderstorm Thunderstorms and Rain
1:32 PM 69.1 °F 68.0 °F 96% 29.84 in 2.0 mi South 9.2 mph - 0.58 in Rain , Thunderstorm Heavy Thunderstorms and Rain
1:53 PM 69.1 °F 68.0 °F 96% 29.79 in 5.0 mi West 5.8 mph - 0.62 in Rain , Thunderstorm Light Thunderstorms and Rain
2:09 PM 69.1 °F 68.0 °F 96% 29.78 in 7.0 mi SSE 9.2 mph - 0.02 in Rain , Thunderstorm Rain
2:24 PM 69.1 °F 68.0 °F 96% 29.78 in 10.0 mi SSE 8.1 mph - 0.04 in Rain Light Rain
2:53 PM 70.0 °F 69.1 °F 97% 29.73 in 10.0 mi South 8.1 mph - 0.04 in   Mostly Cloudy
3:39 PM 71.1 °F 70.0 °F 96% 29.77 in 10.0 mi South 15.0 mph - 0.00 in Rain Light Rain
3:53 PM 71.1 °F 70.0 °F 96% 29.76 in 10.0 mi SSE 11.5 mph 20.7 mph 0.00 in Rain Light Rain
4:53 PM 72.0 °F 69.1 °F 91% 29.77 in 10.0 mi South 10.4 mph - 0.00 in   Clear
5:53 PM 72.0 °F 66.9 °F 84% 29.77 in 10.0 mi SSW 11.5 mph 18.4 mph N/A   Clear
6:53 PM 71.1 °F 66.9 °F 87% 29.78 in 10.0 mi SSW 9.2 mph - 0.00 in   Clear
7:53 PM 70.0 °F 66.9 °F 90% 29.77 in 10.0 mi SW 6.9 mph - 0.00 in Rain Light Rain
8:53 PM 69.1 °F 68.0 °F 96% 29.76 in 10.0 mi SSW 4.6 mph - 0.03 in   Mostly Cloudy
9:53 PM 69.1 °F 68.0 °F 96% 29.78 in 10.0 mi WSW 5.8 mph - 0.00 in Rain , Thunderstorm Light Rain
10:02 PM 69.1 °F 68.0 °F 96% 29.77 in 2.5 mi West 6.9 mph - 0.07 in Rain , Thunderstorm Heavy Thunderstorms and Rain
10:14 PM 69.1 °F 66.9 °F 93% 29.79 in 8.0 mi SSW 10.4 mph - 0.09 in Rain , Thunderstorm Light Thunderstorms and Rain
10:26 PM 68.0 °F 68.0 °F 100% 29.78 in 10.0 mi South 5.8 mph - 0.09 in   Mostly Cloudy
10:53 PM 68.0 °F 68.0 °F 100% 29.78 in 10.0 mi SSE 8.1 mph - 0.09 in   Partly Cloudy
11:09 PM 68.0 °F 68.0 °F 100% 29.79 in 10.0 mi South 6.9 mph - 0.00 in Rain Light Rain
11:23 PM 68.0 °F 68.0 °F 100% 29.80 in 10.0 mi SSW 9.2 mph - 0.01 in Rain , Thunderstorm Light Rain
11:53 PM 69.1 °F 68.0 °F 96% 29.78 in 10.0 mi Variable 5.8 mph - 0.03 in Rain , Thunderstorm Light Rain